When you browse on this site, cookies collect data to enhance your experience and personalize the content and advertising you see.
Visit our Privacy Policy to learn more. By continuing to use the site, you agree to this use of cookies and data.
  • în România
  • Lista ţărilor
  • Pe 7 zile
  • Temperatura apei
  • Hartă satelitară
  • Meteo pe hartă
  • Widget-uri
  • user-avatar
    Intrare

    Meteo pe oră la Pontypridd

    Astăzi, 22 Februarie, Vineri

    Timp Temperatura Precipitaţii Vânt Presiune Umiditate
    00:00 +7°C° 0 mm 3 m/s 762 mmHg 94%
    01:00 +7°C° 0 mm 3 m/s 762 mmHg 93%
    02:00 +7°C° 0 mm 3 m/s 762 mmHg 93%
    03:00 +7°C° 0 mm 3 m/s 761 mmHg 93%
    04:00 +7°C° 0 mm 3 m/s 762 mmHg 93%
    05:00 +5°C° 0 mm 3 m/s 762 mmHg 93%
    06:00 +5°C° 0 mm 3 m/s 763 mmHg 94%
    07:00 +5°C° 0 mm 3 m/s 763 mmHg 93%
    08:00 +7°C° 0 mm 3 m/s 763 mmHg 91%
    09:00 +8°C° 0 mm 3 m/s 763 mmHg 89%
    10:00 +8°C° 0 mm 4 m/s 763 mmHg 85%
    11:00 +10°C° 0 mm 4 m/s 763 mmHg 80%
    12:00 +11°C° 0 mm 4 m/s 764 mmHg 76%
    13:00 +11°C° 0 mm 4 m/s 763 mmHg 75%
    14:00 +12°C° 0 mm 4 m/s 763 mmHg 74%
    15:00 +12°C° 0 mm 5 m/s 763 mmHg 73%
    16:00 +11°C° 0 mm 4 m/s 763 mmHg 78%
    17:00 +10°C° 0 mm 4 m/s 763 mmHg 83%
    18:00 +7°C° 0 mm 4 m/s 763 mmHg 87%
    19:00 +7°C° 0 mm 4 m/s 763 mmHg 88%
    20:00 +6°C° 0 mm 4 m/s 763 mmHg 88%
    21:00 +6°C° 0 mm 4 m/s 763 mmHg 88%
    22:00 +6°C° 0 mm 4 m/s 762 mmHg 88%
    23:00 +6°C° 0 mm 4 m/s 762 mmHg 88%

    Mâine, 23 Februarie, Sâmbătă

    Timp Temperatura Precipitaţii Vânt Presiune Umiditate
    00:00 +6°C° 0 mm 4 m/s 762 mmHg 88%
    01:00 +6°C° 0 mm 4 m/s 762 mmHg 90%
    02:00 +6°C° 0 mm 4 m/s 762 mmHg 91%
    03:00 +6°C° 0 mm 4 m/s 762 mmHg 92%
    04:00 +6°C° 0 mm 4 m/s 762 mmHg 92%
    05:00 +6°C° 0 mm 4 m/s 762 mmHg 92%
    06:00 +6°C° 0 mm 4 m/s 762 mmHg 92%
    07:00 +7°C° 0 mm 4 m/s 762 mmHg 92%
    08:00 +7°C° 0 mm 4 m/s 762 mmHg 91%
    09:00 +8°C° 0 mm 4 m/s 762 mmHg 90%
    10:00 +10°C° 0 mm 4 m/s 762 mmHg 87%
    11:00 +12°C° 0 mm 4 m/s 762 mmHg 83%
    12:00 +13°C° 0 mm 5 m/s 762 mmHg 80%
    13:00 +13°C° 0 mm 4 m/s 762 mmHg 80%
    14:00 +13°C° 0 mm 4 m/s 762 mmHg 79%
    15:00 +14°C° 0 mm 4 m/s 762 mmHg 79%
    16:00 +12°C° 0 mm 3 m/s 762 mmHg 84%
    17:00 +11°C° 0 mm 3 m/s 762 mmHg 89%
    18:00 +10°C° 0 mm 2 m/s 763 mmHg 94%
    19:00 +10°C° 0 mm 2 m/s 763 mmHg 94%
    20:00 +9°C° 0 mm 2 m/s 763 mmHg 95%
    21:00 +9°C° 0 mm 2 m/s 763 mmHg 96%
    22:00 +8°C° 0 mm 2 m/s 763 mmHg 95%
    23:00 +8°C° 0 mm 2 m/s 763 mmHg 95%

    Poimâine, 24 Februarie, Duminică

    Timp Temperatura Precipitaţii Vânt Presiune Umiditate
    00:00 +7°C° 0 mm 2 m/s 763 mmHg 94%
    01:00 +7°C° 0 mm 2 m/s 763 mmHg 94%
    02:00 +7°C° 0 mm 2 m/s 763 mmHg 93%
    03:00 +5°C° 0 mm 3 m/s 763 mmHg 92%
    04:00 +6°C° 0 mm 2 m/s 763 mmHg 92%
    05:00 +6°C° 0 mm 2 m/s 763 mmHg 92%
    06:00 +6°C° 0 mm 2 m/s 764 mmHg 92%
    07:00 +6°C° 0 mm 2 m/s 764 mmHg 90%
    08:00 +7°C° 0 mm 2 m/s 764 mmHg 88%
    09:00 +8°C° 0 mm 3 m/s 765 mmHg 87%
    10:00 +9°C° 0 mm 3 m/s 765 mmHg 82%
    11:00 +10°C° 0 mm 3 m/s 765 mmHg 77%
    12:00 +12°C° 0 mm 3 m/s 765 mmHg 73%
    13:00 +12°C° 0 mm 3 m/s 765 mmHg 72%
    14:00 +14°C° 0 mm 2 m/s 765 mmHg 71%
    15:00 +14°C° 0 mm 2 m/s 765 mmHg 69%
    16:00 +13°C° 0 mm 2 m/s 765 mmHg 75%
    17:00 +12°C° 0 mm 2 m/s 765 mmHg 80%
    18:00 +9°C° 0 mm 2 m/s 765 mmHg 85%
    19:00 +9°C° 0 mm 2 m/s 765 mmHg 86%
    20:00 +8°C° 0 mm 2 m/s 766 mmHg 87%
    21:00 +8°C° 0 mm 2 m/s 766 mmHg 88%
    22:00 +7°C° 0 mm 2 m/s 766 mmHg 87%
    23:00 +7°C° 0 mm 2 m/s 766 mmHg 87%

    25 Februarie, Luni

    Timp Temperatura Precipitaţii Vânt Presiune Umiditate
    00:00 +7°C° 0 mm 1 m/s 767 mmHg 86%
    01:00 +6°C° 0 mm 2 m/s 766 mmHg 84%
    02:00 +5°C° 0 mm 2 m/s 766 mmHg 82%
    03:00 +5°C° 0 mm 2 m/s 766 mmHg 80%
    04:00 +5°C° 0 mm 2 m/s 766 mmHg 77%
    05:00 +4°C° 0 mm 2 m/s 766 mmHg 75%
    06:00 +5°C° 0 mm 1 m/s 766 mmHg 73%
    07:00 +5°C° 0 mm 2 m/s 766 mmHg 70%
    08:00 +6°C° 0 mm 2 m/s 766 mmHg 68%
    09:00 +7°C° 0 mm 2 m/s 767 mmHg 66%
    10:00 +8°C° 0 mm 2 m/s 767 mmHg 64%
    11:00 +10°C° 0 mm 2 m/s 767 mmHg 61%
    12:00 +11°C° 0 mm 3 m/s 767 mmHg 59%
    13:00 +12°C° 0 mm 3 m/s 766 mmHg 59%
    14:00 +12°C° 0 mm 3 m/s 766 mmHg 60%
    15:00 +13°C° 0 mm 3 m/s 766 mmHg 60%
    16:00 +12°C° 0 mm 3 m/s 766 mmHg 67%
    17:00 +10°C° 0 mm 3 m/s 766 mmHg 74%
    18:00 +9°C° 0 mm 3 m/s 766 mmHg 80%
    19:00 +9°C° 0 mm 3 m/s 766 mmHg 82%
    20:00 +8°C° 0 mm 3 m/s 766 mmHg 84%
    21:00 +7°C° 0 mm 3 m/s 766 mmHg 87%
    22:00 +7°C° 0 mm 3 m/s 766 mmHg 85%
    23:00 +7°C° 0 mm 3 m/s 765 mmHg 84%

    26 Februarie, Marţi

    Timp Temperatura Precipitaţii Vânt Presiune Umiditate
    00:00 +5°C° 0 mm 3 m/s 765 mmHg 83%
    01:00 +5°C° 0 mm 3 m/s 765 mmHg 82%
    02:00 +5°C° 0 mm 3 m/s 765 mmHg 81%
    03:00 +5°C° 0 mm 3 m/s 764 mmHg 80%
    04:00 +5°C° 0 mm 3 m/s 764 mmHg 81%
    05:00 +4°C° 0 mm 3 m/s 764 mmHg 82%
    06:00 +4°C° 0 mm 3 m/s 764 mmHg 82%
    07:00 +5°C° 0 mm 3 m/s 764 mmHg 80%
    08:00 +6°C° 0 mm 4 m/s 764 mmHg 78%
    09:00 +7°C° 0 mm 4 m/s 764 mmHg 76%
    10:00 +8°C° 0 mm 4 m/s 763 mmHg 72%
    11:00 +11°C° 0 mm 4 m/s 763 mmHg 69%
    12:00 +12°C° 0 mm 5 m/s 763 mmHg 66%
    13:00 +13°C° 0 mm 5 m/s 763 mmHg 66%
    14:00 +13°C° 0 mm 5 m/s 762 mmHg 66%
    15:00 +13°C° 0 mm 5 m/s 762 mmHg 67%
    16:00 +12°C° 0 mm 4 m/s 762 mmHg 74%
    17:00 +10°C° 0 mm 3 m/s 762 mmHg 81%
    18:00 +9°C° 0 mm 3 m/s 761 mmHg 89%
    19:00 +8°C° 0 mm 2 m/s 761 mmHg 90%
    20:00 +7°C° 0 mm 2 m/s 761 mmHg 92%
    21:00 +6°C° 0 mm 2 m/s 761 mmHg 93%
    22:00 +6°C° 0 mm 2 m/s 761 mmHg 94%
    23:00 +7°C° 0 mm 1 m/s 761 mmHg 94%

    27 Februarie, Miercuri

    Timp Temperatura Precipitaţii Vânt Presiune Umiditate
    00:00 +6°C° 0 mm 1 m/s 761 mmHg 95%
    01:00 +6°C° 0 mm 1 m/s 761 mmHg 95%
    02:00 +6°C° 0 mm 1 m/s 761 mmHg 94%
    03:00 +6°C° 0 mm 1 m/s 761 mmHg 94%
    04:00 +6°C° 0 mm 1 m/s 760 mmHg 94%
    05:00 +6°C° 0 mm 1 m/s 760 mmHg 93%
    06:00 +6°C° 0 mm 1 m/s 760 mmHg 93%
    07:00 +7°C° 0 mm 1 m/s 760 mmHg 92%
    08:00 +8°C° 0 mm 2 m/s 760 mmHg 90%
    09:00 +9°C° 0 mm 2 m/s 760 mmHg 89%
    10:00 +10°C° 0 mm 2 m/s 760 mmHg 84%
    11:00 +13°C° 0 mm 2 m/s 760 mmHg 79%
    12:00 +14°C° 0 mm 2 m/s 760 mmHg 74%
    13:00 +15°C° 0 mm 2 m/s 759 mmHg 73%
    14:00 +15°C° 0 mm 2 m/s 759 mmHg 71%
    15:00 +16°C° 0 mm 2 m/s 758 mmHg 70%
    16:00 +14°C° 0 mm 2 m/s 758 mmHg 76%
    17:00 +13°C° 0 mm 2 m/s 758 mmHg 82%
    18:00 +10°C° 0 mm 2 m/s 758 mmHg 88%
    19:00 +10°C° 0 mm 2 m/s 758 mmHg 89%
    20:00 +9°C° 0 mm 2 m/s 758 mmHg 90%
    21:00 +8°C° 0 mm 2 m/s 758 mmHg 91%
    22:00 +9°C° 0 mm 1 m/s 758 mmHg 92%
    23:00 +9°C° 0 mm 1 m/s 758 mmHg 92%
    Arată mai mult